GW2134 Weather Reports


Display with metric or nautical units.
time (UTC)temp
F
wind
direction
speed
MPH
gust
MPH
rain 1hr
in
rain 24hr
in
rain mn
in
humidity
%
barometer
mb
20260503031552 53 332 3.0 4.0 0.00 0.00 0.00 53 1022.8
20260503030053 53 0 0.0 1.0 0.00 0.00 0.00 52 1022.9
20260503024601 53 0 1.0 3.0 0.00 0.00 0.00 52 1022.8
20260503023052 53 0 0.0 1.0 0.00 0.00 0.00 52 1022.9
20260503021557 53 0 0.0 2.0 0.00 0.00 0.00 51 1022.8
20260503020056 53 0 0.0 1.0 0.00 0.00 0.00 51 1023.0
20260503014621 54 340 0.0 3.0 0.00 0.00 0.00 51 1023.0
20260503013053 54 342 2.0 7.0 0.00 0.00 0.00 50 1023.1
20260503011600 53 325 2.0 5.0 0.00 0.00 0.00 51 1023.2
20260503010057 53 346 2.0 4.0 0.00 0.00 0.00 52 1023.4
20260503004600 54 0 0.0 2.0 0.00 0.00 0.00 52 1023.4
20260503003050 54 355 2.0 4.0 0.00 0.00 0.00 52 1023.5
20260503001608 53 0 0.0 3.0 0.00 0.00 0.00 53 1023.6
20260503000111 54 0 0.0 2.0 0.00 0.00 0.00 55 1023.7
20260502234556 54 0 0.0 1.0 0.00 0.00 0.00 55 1023.8
20260502233054 54 0 2.0 5.0 0.00 0.00 0.00 54 1023.8
20260502231554 55 0 0.0 4.0 0.00 0.00 0.00 55 1024.0
20260502230052 55 5 2.0 4.0 0.00 0.00 0.00 56 1024.1
20260502224609 55 0 0.0 4.0 0.00 0.00 0.00 53 1024.2
20260502223055 55 336 0.0 3.0 0.00 0.00 0.00 56 1024.2
20260502221554 55 0 0.0 2.0 0.00 0.00 0.00 57 1024.3
20260502220052 56 23 0.0 5.0 0.00 0.00 0.00 57 1024.2
20260502214554 55 343 3.0 5.0 0.00 0.00 0.00 57 1024.3
20260502213108 54 5 0.0 2.0 0.00 0.00 0.00 59 1024.4
20260502211608 55 0 0.0 4.0 0.00 0.00 0.00 59 1024.4
20260502210056 55 355 1.0 2.0 0.00 0.00 0.00 59 1024.4
20260502204554 55 0 0.0 3.0 0.00 0.00 0.00 58 1024.6
20260502203059 56 0 0.0 4.0 0.00 0.00 0.00 57 1024.6
20260502201557 56 0 0.0 5.0 0.00 0.00 0.00 56 1024.8
20260502200052 57 307 3.0 6.0 0.00 0.00 0.00 54 1024.8
20260502194603 57 30 1.0 6.0 0.00 0.00 0.00 53 1024.8
20260502193053 57 5 4.0 7.0 0.00 0.00 0.00 53 1024.7
20260502191555 57 340 3.0 7.0 0.00 0.00 0.00 52 1024.6
20260502190053 57 355 5.0 9.0 0.00 0.00 0.00 52 1024.3
20260502184556 58 343 4.0 8.0 0.00 0.00 0.00 52 1024.2
20260502183104 59 338 4.0 6.0 0.00 0.00 0.00 51 1024.2
20260502181553 61 58 2.0 5.0 0.00 0.00 0.00 48 1024.1
20260502163056 68 211 1.0 4.0 0.00 0.00 0.00 31 1024.3
20260502161549 68 118 1.0 6.0 0.00 0.00 0.00 37 1024.4
20260502151604 70 280 1.0 8.0 0.00 0.00 0.00 35 1024.7
20260502123053 69 211 5.0 10.0 0.00 0.00 0.00 35 1026.4
20260502121555 68 55 3.0 10.0 0.00 0.00 0.00 36 1026.5
20260502114607 68 169 4.0 8.0 0.00 0.00 0.00 36 1026.9
20260502113052 68 102 2.0 9.0 0.00 0.00 0.00 36 1027.1
20260502111556 67 117 5.0 12.0 0.00 0.00 0.00 37 1027.3
20260502110055 67 126 2.0 6.0 0.00 0.00 0.00 36 1027.6
20260502104720 67 80 3.0 8.0 0.00 0.00 0.00 36 1027.7
20260502104554 67 80 3.0 8.0 0.00 0.00 0.00 36 1027.7
20260502103055 65 311 1.0 7.0 0.00 0.00 0.00 37 1027.9
20260502101623 66 117 3.0 10.0 0.00 0.00 0.00 37 1028.2
20260502090108 63 190 2.0 6.0 0.00 0.00 0.00 39 1028.6
20260502080107 59 165 3.0 8.0 0.00 0.00 0.00 43 1028.6
20260502070059 58 108 0.0 3.0 0.00 0.00 0.00 46 1028.8
20260502064555 57 0 1.0 4.0 0.00 0.00 0.00 52 1028.8
20260502063057 56 355 0.0 2.0 0.00 0.00 0.00 47 1028.8
20260502061550 54 0 0.0 1.0 0.00 0.00 0.00 56 1028.8
20260502060051 52 0 0.0 1.0 0.00 0.00 0.00 54 1028.9
20260502054558 51 0 0.0 2.0 0.00 0.00 0.00 55 1028.9
20260502053052 51 0 0.0 0.0 0.00 0.00 0.00 55 1028.8
20260502051604 50 0 0.0 3.0 0.00 0.00 0.00 56 1028.7
20260502050054 49 0 0.0 3.0 0.00 0.00 0.00 55 1028.7
20260502044552 48 0 0.0 2.0 0.00 0.00 0.00 54 1028.7
20260502043103 48 19 1.0 4.0 0.00 0.00 0.00 53 1028.6
20260502041600 48 0 0.0 3.0 0.00 0.00 0.00 53 1028.6
20260502040059 48 0 0.0 5.0 0.00 0.00 0.00 52 1028.7
20260502034553 49 327 0.0 4.0 0.00 0.00 0.00 51 1028.7
20260502033059 49 330 2.0 7.0 0.00 0.00 0.00 50 1028.6